Time,TemperatureF,DewpointF,PressureIn,WindDirection,WindDirectionDegrees,WindSpeedMPH,WindSpeedGustMPH,Humidity,HourlyPrecipIn,Conditions,Clouds,dailyrainin,SoftwareType,DateUTC
2013-02-10 00:09:00,50.4,30.4,29.96,West,270,4.2,-999.0,46,-99.99,,,0.00,Acu-Link.com,2013-02-10 08:09:00,
2013-02-10 00:24:00,50.5,32.1,29.96,North,0,5.8,-999.0,49,-99.99,,,0.00,Acu-Link.com,2013-02-10 08:24:00,
2013-02-10 00:39:00,50.4,32.0,29.96,West,270,8.3,-999.0,49,-99.99,,,0.00,Acu-Link.com,2013-02-10 08:39:00,
2013-02-10 00:55:00,50.2,31.8,29.96,WSW,247,9.4,-999.0,49,-99.99,,,0.00,Acu-Link.com,2013-02-10 08:55:00,
2013-02-10 01:19:00,50.5,32.1,29.96,West,270,10.4,-999.0,49,-99.99,,,0.00,Acu-Link.com,2013-02-10 09:19:00,
2013-02-10 01:34:00,50.4,32.0,29.95,West,270,7.8,-999.0,49,-99.99,,,0.00,Acu-Link.com,2013-02-10 09:34:00,
2013-02-10 01:49:00,50.5,32.1,29.96,WSW,247,7.3,-999.0,49,-99.99,,,0.00,Acu-Link.com,2013-02-10 09:49:00,
2013-02-10 02:05:00,50.0,31.1,29.95,SW,225,4.7,-999.0,48,-99.99,,,0.00,Acu-Link.com,2013-02-10 10:05:00,
2013-02-10 02:20:00,49.3,29.9,29.94,West,270,4.2,-999.0,47,-99.99,,,0.00,Acu-Link.com,2013-02-10 10:20:00,
2013-02-10 02:35:00,49.3,30.5,29.94,WNW,292,6.8,-999.0,48,-99.99,,,0.00,Acu-Link.com,2013-02-10 10:35:00,
2013-02-10 02:51:00,49.3,29.9,29.93,WNW,292,7.3,-999.0,47,-99.99,,,0.00,Acu-Link.com,2013-02-10 10:51:00,
2013-02-10 03:06:00,49.3,29.9,29.94,NW,315,7.3,-999.0,47,-99.99,,,0.00,Acu-Link.com,2013-02-10 11:06:00,
2013-02-10 03:21:00,49.5,29.6,29.94,WNW,292,7.3,-999.0,46,-99.99,,,0.00,Acu-Link.com,2013-02-10 11:21:00,
2013-02-10 03:36:00,49.3,29.4,29.93,WSW,247,4.2,-999.0,46,-99.99,,,0.00,Acu-Link.com,2013-02-10 11:36:00,
2013-02-10 03:52:00,49.3,28.9,29.93,SW,225,6.8,-999.0,45,-99.99,,,0.00,Acu-Link.com,2013-02-10 11:52:00,
2013-02-10 04:07:00,48.7,28.9,29.93,NNW,337,5.8,-999.0,46,-99.99,,,0.00,Acu-Link.com,2013-02-10 12:07:00,
2013-02-10 04:22:00,48.2,28.4,29.93,West,270,3.7,-999.0,46,-99.99,,,0.00,Acu-Link.com,2013-02-10 12:22:00,
2013-02-10 04:37:00,48.0,28.7,29.93,West,270,5.8,-999.0,47,-99.99,,,0.00,Acu-Link.com,2013-02-10 12:37:00,
2013-02-10 04:53:00,47.8,28.6,29.93,West,270,2.2,-999.0,47,-99.99,,,0.00,Acu-Link.com,2013-02-10 12:53:00,
2013-02-10 05:08:00,46.6,28.5,29.94,West,270,0.0,-999.0,49,-99.99,,,0.00,Acu-Link.com,2013-02-10 13:08:00,
2013-02-10 05:23:00,46.8,28.2,29.93,South,180,1.7,-999.0,48,-99.99,,,0.00,Acu-Link.com,2013-02-10 13:23:00,
2013-02-10 05:39:00,45.3,28.3,29.94,NNE,22,0.0,-999.0,51,-99.99,,,0.00,Acu-Link.com,2013-02-10 13:39:00,
2013-02-10 05:54:00,46.0,27.9,29.94,WSW,247,2.2,-999.0,49,-99.99,,,0.00,Acu-Link.com,2013-02-10 13:54:00,
2013-02-10 06:09:00,44.8,28.3,29.94,WNW,292,1.1,-999.0,52,-99.99,,,0.00,Acu-Link.com,2013-02-10 14:09:00,
2013-02-10 06:25:00,43.5,28.4,29.94,West,270,1.7,-999.0,55,-99.99,,,0.00,Acu-Link.com,2013-02-10 14:25:00,
2013-02-10 06:40:00,43.5,28.4,29.94,WNW,292,4.2,-999.0,55,-99.99,,,0.00,Acu-Link.com,2013-02-10 14:40:00,
2013-02-10 06:55:00,44.4,28.8,29.95,West,270,1.7,-999.0,54,-99.99,,,0.00,Acu-Link.com,2013-02-10 14:55:00,
2013-02-10 07:11:00,44.6,28.1,29.94,West,270,0.0,-999.0,52,-99.99,,,0.00,Acu-Link.com,2013-02-10 15:11:00,
2013-02-10 07:26:00,45.9,28.3,29.94,West,270,1.7,-999.0,50,-99.99,,,0.00,Acu-Link.com,2013-02-10 15:26:00,
2013-02-10 07:41:00,46.2,29.6,29.94,NNE,22,1.7,-999.0,52,-99.99,,,0.00,Acu-Link.com,2013-02-10 15:41:00,
2013-02-10 07:57:00,49.5,30.6,29.94,West,270,6.8,-999.0,48,-99.99,,,0.00,Acu-Link.com,2013-02-10 15:57:00,
2013-02-10 08:12:00,50.4,31.5,29.94,NW,315,7.3,-999.0,48,-99.99,,,0.00,Acu-Link.com,2013-02-10 16:12:00,
2013-02-10 08:27:00,51.6,32.0,29.94,SE,135,6.3,-999.0,47,-99.99,,,0.00,Acu-Link.com,2013-02-10 16:27:00,
2013-02-10 08:42:00,52.2,32.1,29.95,WNW,292,7.3,-999.0,46,-99.99,,,0.00,Acu-Link.com,2013-02-10 16:42:00,
2013-02-10 08:57:00,53.1,32.3,29.96,WNW,292,6.3,-999.0,45,-99.99,,,0.00,Acu-Link.com,2013-02-10 16:57:00,
2013-02-10 09:13:00,54.1,32.1,29.95,West,270,9.9,-999.0,43,-99.99,,,0.00,Acu-Link.com,2013-02-10 17:13:00,
2013-02-10 09:28:00,54.3,32.9,29.96,SW,225,6.3,-999.0,44,-99.99,,,0.00,Acu-Link.com,2013-02-10 17:28:00,
2013-02-10 09:43:00,55.6,32.9,29.96,West,270,5.3,-999.0,42,-99.99,,,0.00,Acu-Link.com,2013-02-10 17:43:00,
2013-02-10 09:58:00,55.8,32.5,29.96,WNW,292,9.4,-999.0,41,-99.99,,,0.00,Acu-Link.com,2013-02-10 17:58:00,
2013-02-10 10:14:00,56.7,32.7,29.95,WNW,292,8.9,-999.0,40,-99.99,,,0.00,Acu-Link.com,2013-02-10 18:14:00,
2013-02-10 10:29:00,57.4,33.3,29.96,NNW,337,7.3,-999.0,40,-99.99,,,0.00,Acu-Link.com,2013-02-10 18:29:00,
2013-02-10 10:44:00,57.2,33.1,29.95,West,270,5.3,-999.0,40,-99.99,,,0.00,Acu-Link.com,2013-02-10 18:44:00,
2013-02-10 11:00:00,58.3,33.5,29.94,NNE,22,5.8,-999.0,39,-99.99,,,0.00,Acu-Link.com,2013-02-10 19:00:00,
2013-02-10 11:15:00,58.8,33.3,29.95,NNW,337,7.3,-999.0,38,-99.99,,,0.00,Acu-Link.com,2013-02-10 19:15:00,
2013-02-10 11:30:00,59.4,33.1,29.94,WNW,292,6.3,-999.0,37,-99.99,,,0.00,Acu-Link.com,2013-02-10 19:30:00,
2013-02-10 11:45:00,59.9,32.2,29.93,West,270,6.8,-999.0,35,-99.99,,,0.00,Acu-Link.com,2013-02-10 19:45:00,
2013-02-10 12:01:00,60.3,31.8,29.92,West,270,6.8,-999.0,34,-99.99,,,0.00,Acu-Link.com,2013-02-10 20:01:00,
2013-02-10 12:16:00,60.4,31.9,29.92,West,270,4.7,-999.0,34,-99.99,,,0.00,Acu-Link.com,2013-02-10 20:16:00,
2013-02-10 12:31:00,61.0,31.7,29.90,NW,315,5.3,-999.0,33,-99.99,,,0.00,Acu-Link.com,2013-02-10 20:31:00,
2013-02-10 12:47:00,61.5,31.4,29.89,West,270,7.8,-999.0,32,-99.99,,,0.00,Acu-Link.com,2013-02-10 20:47:00,
2013-02-10 13:02:00,59.0,31.4,29.89,West,270,8.3,-999.0,35,-99.99,,,0.00,Acu-Link.com,2013-02-10 21:02:00,
2013-02-10 13:17:00,58.6,31.0,29.89,West,270,6.3,-999.0,35,-99.99,,,0.00,Acu-Link.com,2013-02-10 21:17:00,
2013-02-10 13:33:00,59.0,30.7,29.89,West,270,6.3,-999.0,34,-99.99,,,0.00,Acu-Link.com,2013-02-10 21:33:00,
2013-02-10 13:48:00,59.4,31.0,29.88,WNW,292,5.8,-999.0,34,-99.99,,,0.00,Acu-Link.com,2013-02-10 21:48:00,
2013-02-10 14:04:00,61.2,31.1,29.88,West,270,5.8,-999.0,32,-99.99,,,0.00,Acu-Link.com,2013-02-10 22:04:00,
2013-02-10 14:19:00,61.9,30.9,29.88,WNW,292,5.8,-999.0,31,-99.99,,,0.00,Acu-Link.com,2013-02-10 22:19:00,
2013-02-10 14:34:00,62.2,31.2,29.87,West,270,7.3,-999.0,31,-99.99,,,0.00,Acu-Link.com,2013-02-10 22:34:00,
2013-02-10 14:49:00,59.7,30.6,29.88,WSW,247,5.8,-999.0,33,-99.99,,,0.00,Acu-Link.com,2013-02-10 22:49:00,
2013-02-10 15:05:00,60.1,30.9,29.87,West,270,7.8,-999.0,33,-99.99,,,0.00,Acu-Link.com,2013-02-10 23:05:00,
2013-02-10 15:20:00,60.1,31.6,29.86,NNW,337,8.9,-999.0,34,-99.99,,,0.00,Acu-Link.com,2013-02-10 23:20:00,
2013-02-10 15:35:00,59.7,31.3,29.86,West,270,6.3,-999.0,34,-99.99,,,0.00,Acu-Link.com,2013-02-10 23:35:00,
2013-02-10 15:51:00,59.2,31.6,29.85,West,270,8.3,-999.0,35,-99.99,,,0.00,Acu-Link.com,2013-02-10 23:51:00,
2013-02-10 16:06:00,58.3,31.5,29.85,WNW,292,8.3,-999.0,36,-99.99,,,0.00,Acu-Link.com,2013-02-11 00:06:00,
2013-02-10 16:21:00,57.6,31.5,29.85,NW,315,7.8,-999.0,37,-99.99,,,0.00,Acu-Link.com,2013-02-11 00:21:00,
2013-02-10 16:37:00,56.1,32.1,29.86,West,270,4.2,-999.0,40,-99.99,,,0.00,Acu-Link.com,2013-02-11 00:37:00,
2013-02-10 16:52:00,55.4,31.5,29.85,WNW,292,9.4,-999.0,40,-99.99,,,0.00,Acu-Link.com,2013-02-11 00:52:00,
2013-02-10 17:07:00,55.0,31.1,29.86,NNW,337,6.8,-999.0,40,-99.99,,,0.00,Acu-Link.com,2013-02-11 01:07:00,
2013-02-10 17:23:00,54.5,31.9,29.86,West,270,7.3,-999.0,42,-99.99,,,0.00,Acu-Link.com,2013-02-11 01:23:00,
2013-02-10 17:38:00,54.1,32.1,29.87,WNW,292,6.3,-999.0,43,-99.99,,,0.00,Acu-Link.com,2013-02-11 01:38:00,
2013-02-10 17:53:00,54.0,32.0,29.87,West,270,6.8,-999.0,43,-99.99,,,0.00,Acu-Link.com,2013-02-11 01:53:00,
2013-02-10 18:09:00,53.8,31.8,29.87,West,270,6.3,-999.0,43,-99.99,,,0.00,Acu-Link.com,2013-02-11 02:09:00,
2013-02-10 18:24:00,53.2,31.9,29.87,South,180,6.3,-999.0,44,-99.99,,,0.00,Acu-Link.com,2013-02-11 02:24:00,
2013-02-10 18:39:00,53.4,32.0,29.88,WNW,292,6.8,-999.0,44,-99.99,,,0.00,Acu-Link.com,2013-02-11 02:39:00,
2013-02-10 18:54:00,53.1,31.8,29.88,NW,315,10.9,-999.0,44,-99.99,,,0.00,Acu-Link.com,2013-02-11 02:54:00,
2013-02-10 19:10:00,52.7,32.0,29.88,WNW,292,6.8,-999.0,45,-99.99,,,0.00,Acu-Link.com,2013-02-11 03:10:00,
2013-02-10 19:25:00,52.7,32.0,29.88,WNW,292,6.8,-999.0,45,-99.99,,,0.00,Acu-Link.com,2013-02-11 03:25:00,
2013-02-10 19:40:00,52.7,32.0,29.88,SW,225,9.4,-999.0,45,-99.99,,,0.00,Acu-Link.com,2013-02-11 03:40:00,
2013-02-10 19:55:00,52.7,32.5,29.88,NNW,337,6.8,-999.0,46,-99.99,,,0.00,Acu-Link.com,2013-02-11 03:55:00,
2013-02-10 20:11:00,52.5,32.9,29.89,WNW,292,4.7,-999.0,47,-99.99,,,0.00,Acu-Link.com,2013-02-11 04:11:00,
2013-02-10 20:26:00,52.3,33.2,29.90,WSW,247,9.4,-999.0,48,-99.99,,,0.00,Acu-Link.com,2013-02-11 04:26:00,
2013-02-10 20:41:00,51.8,34.3,29.90,West,270,6.8,-999.0,51,-99.99,,,0.00,Acu-Link.com,2013-02-11 04:41:00,
2013-02-10 20:56:00,51.4,34.4,29.89,West,270,9.4,-999.0,52,-99.99,,,0.00,Acu-Link.com,2013-02-11 04:56:00,
2013-02-10 21:12:00,51.6,33.6,29.90,WNW,292,7.3,-999.0,50,-99.99,,,0.00,Acu-Link.com,2013-02-11 05:12:00,
2013-02-10 21:27:00,51.4,33.9,29.90,WNW,292,6.8,-999.0,51,-99.99,,,0.00,Acu-Link.com,2013-02-11 05:27:00,
2013-02-10 21:42:00,51.4,33.9,29.91,NW,315,8.3,-999.0,51,-99.99,,,0.00,Acu-Link.com,2013-02-11 05:42:00,
2013-02-10 21:58:00,51.6,34.1,29.91,NW,315,8.9,-999.0,51,-99.99,,,0.00,Acu-Link.com,2013-02-11 05:58:00,
2013-02-10 22:13:00,51.8,34.3,29.91,West,270,13.0,-999.0,51,-99.99,,,0.00,Acu-Link.com,2013-02-11 06:13:00,
2013-02-10 22:28:00,51.8,33.8,29.91,WNW,292,7.3,-999.0,50,-99.99,,,0.00,Acu-Link.com,2013-02-11 06:28:00,
2013-02-10 22:44:00,51.6,34.6,29.93,West,270,7.3,-999.0,52,-99.99,,,0.00,Acu-Link.com,2013-02-11 06:44:00,
2013-02-10 22:59:00,51.1,35.0,29.93,West,270,6.3,-999.0,54,-99.99,,,0.00,Acu-Link.com,2013-02-11 06:59:00,
2013-02-10 23:14:00,51.1,34.6,29.92,West,270,14.5,-999.0,53,-99.99,,,0.00,Acu-Link.com,2013-02-11 07:14:00,
2013-02-10 23:30:00,51.3,34.8,29.92,North,0,6.8,-999.0,53,-99.99,,,0.00,Acu-Link.com,2013-02-11 07:30:00,
2013-02-10 23:45:00,51.1,34.6,29.93,West,270,7.3,-999.0,53,-99.99,,,0.00,Acu-Link.com,2013-02-11 07:45:00,